Powrót do katalogu

ATLAS 5 CENTAUR R/B

AktywnyHEO
NORAD 39505·ROCKET BODY·🇺🇸 United States

Wystrzelony Jan 24, 2014 z Cape Canaveral Space Force Station

Loading…

Następne Przeloty (najbliższe 24 godziny)

TLE

ŚwieżeSource: Space-Track

Epoka: Sep 14, 2026, 12:04 UTC

1 39505U 14004B   26257.50287552 -.00000041  00000-0  00000-0 0  9993
2 39505  25.9917   5.0520 5759389 283.3046  21.6247  2.06523164 95398

Śledź ATLAS 5 CENTAUR R/B w czasie rzeczywistym z AllMySat

Download on the App Store